sat.trackr.live / text

‹ back to catalog

STARLINK-33783

NORAD 63712 · 2025-087R

PAYLOAD ACTIVE UNKNOWN

§ Identity

Operator
Country
US
Launch date
2025-04-28
Launch site
AFWTR
Launch vehicle
Mass (kg)
RCS (m²)

Purposes: comms

External: N2YO · Heavens-Above · Gunter

§ Orbital elements

Epoch: 2026-05-24T22:21:51.159168Z

Period
94.01 min
Inclination
53.1570°
Eccentricity
0.0001370
Mean motion
15.31712490 rev/d
Perigee alt
469.8 km
Apogee alt
471.6 km
Semi-major
6,848.8 km
B*
7.1539e-4
RAAN
225.3467°
Arg perigee
88.6227°
Mean anomaly
271.4931°
Rev number
6,087

§ Raw data

STARLINK-337831 63712U 25087R   26144.93184212  .00021908  00000+0  71539-3 0  99952 63712  53.1570 225.3467 0001370  88.6227 271.4931 15.31712490 60876

JSON: /api/v1/satellites/63712 · /tle

For live sub-satellite position, see the globe view (requires WebGL).

§ Visibility from observer

Set your observer location to see the next 7 days of passes ≥ 10°. The values pass through the URL so the page stays shareable.

No JS? Fill the form by hand. The geolocation button needs JavaScript.